Location: Norton
(51.3000°N, 0.8167°E)
Time: 12:55:27
(UTC+00:00)

PSLV R/B - Pass Details

Date: 03 March 2021
Orbit: 567 x 598 km, 98.2° (Epoch: 16 April)

Event Time Altitude Azimuth Distance (km) Brightness Sun altitude
Rises 18:32:28 0° 17° (NNE) 2,813 7.3 -8.8°
Reaches altitude 10° 18:34:40 10° 21° (NNE) 1,904 6.4 -9.2°
Maximum altitude 18:38:44 58° 101° (ESE) 675 3.9 -9.8°
Drops below altitude 10° 18:42:44 10° 182° (S) 1,872 6.5 -10.4°
Sets 18:44:53 0° 186° (S) 2,761 7.4 -10.8°
